[[{"header":{"parameterUnit":"m.s-1","parameterCategory":1,"la1":30.2991,"la2":30.254,"lo1":-89.0895,"lo2":-89.0444,"dy":0.0017,"dx":0.0017,"nx":28,"ny":28,"refTime":"2025-06-20T09:00:00:Z","depth":0,"parameterNumber":2,"parameterNumberName":"U-component_of_WINDS"},"data":[0,0,0,0,0,0,0,0,0,0,0,0,0,0,0,0,0,0,0,0,0,0,0,0,0,0,0,0,0,0,0,0,0,0,0,0,0,0,0,0,0,0,0,0,0,0,0,0,0,0,0,0,0,0,0,0,0,0,-0.4705,-0.4704,0,-0.4641,-0.464,-0.4639,-0.4598,-0.4597,-0.4597,-0.4597,-0.4531,-0.453,-0.4529,0,0,0,0,0,0,0,0,0,0,0,0,0,-0.4792,-0.479,-0.4705,-0.4704,-0.4703,-0.4641,-0.464,-0.4639,-0.4598,-0.4597,-0.4597,-0.4597,-0.4532,-0.453,-0.4528,0,0,0,0,0,0,0,0,0,0,0,0,0,-0.4743,-0.479,-0.4705,-0.4675,-0.4672,-0.4641,-0.464,-0.4639,-0.4598,-0.4597,-0.4597,-0.4597,-0.4533,-0.453,-0.4528,-0.4522,0,0,-0.4521,-0.452,0,0,0,0,0,0,0,0,-0.4746,-0.474,-0.468,-0.4677,-0.4673,-0.4627,-0.4647,-0.46,-0.4598,-0.4626,-0.4597,-0.4597,-0.4564,-0.4559,-0.4548,-0.4519,-0.4516,-0.4521,-0.452,-0.4519,-0.4518,0,0,0,0,0,0,0,-0.475,-0.4743,-0.4679,-0.4679,-0.4675,-0.4665,-0.4658,-0.4638,-0.4598,-0.4623,-0.462,-0.4613,-0.4562,-0.455,-0.4546,-0.4515,-0.4521,-0.4519,-0.4518,-0.4517,-0.448,-0.448,0,0,0,0,0,0,-0.4758,-0.4746,-0.4681,-0.4678,-0.471,-0.4664,-0.4656,-0.4642,-0.4598,-0.4591,-0.4614,-0.4612,-0.4554,-0.4548,-0.4543,-0.4534,-0.4519,-0.4517,-0.4515,-0.4479,-0.448,-0.448,0,0,0,0,0,0,-0.476,-0.4752,-0.4684,-0.4711,-0.4701,-0.4663,-0.4648,-0.4641,-0.4629,-0.459,-0.4583,-0.4609,-0.4553,-0.4546,-0.4528,-0.4531,-0.4516,-0.4514,-0.4479,-0.448,-0.448,-0.4515,0,0,0,0,0,0,-0.4762,-0.4753,-0.475,-0.4711,-0.47,-0.467,-0.4648,-0.464,-0.4626,-0.4622,-0.4584,-0.4577,-0.4552,-0.4532,-0.4526,-0.4528,-0.4512,-0.4479,-0.4479,-0.448,-0.4514,-0.4517,-0.452,0,0,0,0,0,-0.4766,-0.4763,-0.4751,-0.4743,-0.4696,-0.467,-0.4664,-0.4635,-0.4626,-0.4623,-0.4598,-0.4579,-0.4532,-0.453,-0.4523,-0.4525,-0.4478,-0.4479,-0.448,-0.4512,-0.4516,-0.452,0,0,0,0,0,0,-0.4803,-0.4757,-0.4743,-0.4727,-0.4703,-0.4663,-0.4658,-0.464,-0.4618,-0.4616,-0.4581,-0.4573,-0.4558,-0.4539,-0.4538,-0.4517,-0.4503,-0.4502,-0.453,-0.4533,-0.4536,-0.4541,-0.451,0,0,0,0,0,-0.481,-0.4793,-0.4753,-0.4743,-0.4732,-0.4697,-0.4685,-0.4665,-0.4639,-0.4628,-0.4602,-0.4577,-0.4556,-0.4544,-0.4523,-0.4511,-0.4502,-0.4508,-0.4512,-0.4514,-0.4514,-0.4507,-0.451,-0.4483,-0.4483,-0.4483,0,0,-0.4823,-0.4796,-0.4787,-0.475,-0.4729,-0.4712,-0.4689,-0.4672,-0.466,-0.4625,-0.4607,-0.4587,-0.4556,-0.4542,-0.4534,-0.4525,-0.452,-0.4515,-0.4518,-0.4516,-0.4509,-0.4511,-0.4513,-0.4483,-0.4483,-0.4483,0,0,-0.4839,-0.4817,-0.4806,-0.4785,-0.4754,-0.4731,-0.4729,-0.4691,-0.4677,-0.4657,-0.4632,-0.4616,-0.4582,-0.4562,-0.4547,-0.4556,-0.4538,-0.455,-0.4566,-0.456,-0.4562,-0.4564,-0.4568,-0.457,-0.455,-0.455,-0.455,0,-0.486,-0.4834,-0.4803,-0.4788,-0.4773,-0.4741,-0.4731,-0.4712,-0.4675,-0.4666,-0.4657,-0.4614,-0.4591,-0.4571,-0.4574,-0.4563,-0.4559,-0.4554,-0.4564,-0.4566,-0.4567,-0.457,-0.4572,-0.4552,-0.4552,-0.4552,-0.4552,0,-0.4861,-0.4843,-0.4839,-0.4804,-0.4788,-0.4776,-0.4744,-0.4731,-0.4713,-0.4691,-0.4672,-0.4644,-0.4617,-0.4611,-0.4593,-0.4589,-0.4585,-0.4571,-0.4556,-0.4572,-0.4574,-0.4575,-0.4555,-0.4554,-0.4554,-0.4553,0,0,-0.4899,-0.4848,-0.4847,-0.4831,-0.4794,-0.478,-0.4766,-0.474,-0.4731,-0.4706,-0.4694,-0.4666,-0.4653,-0.4636,-0.4616,-0.461,-0.462,-0.4596,-0.4595,-0.4602,-0.4615,-0.4626,-0.4628,-0.4607,-0.4607,-0.4607,-0.4618,0,-0.491,-0.4884,-0.4856,-0.4839,-0.4823,-0.4793,-0.4781,-0.4757,-0.4736,-0.472,-0.4697,-0.4678,-0.4662,-0.4651,-0.4644,-0.462,-0.4622,-0.4619,-0.4596,-0.4596,-0.4605,-0.463,-0.4641,-0.4653,-0.4619,-0.4619,-0.4619,0,-0.492,-0.4897,-0.4879,-0.4844,-0.4836,-0.4826,-0.48,-0.4784,-0.4757,-0.4742,-0.4724,-0.4702,-0.4686,-0.4673,-0.4651,-0.465,-0.4639,-0.4626,-0.4625,-0.4623,-0.4609,-0.4628,-0.4655,-0.4657,-0.462,-0.462,-0.462,0,-0.4951,-0.4915,-0.49,-0.4887,-0.4846,-0.484,-0.4822,-0.4794,-0.4781,-0.4758,-0.4749,-0.4725,-0.4712,-0.4694,-0.4666,-0.4659,-0.4648,-0.4632,-0.4636,-0.4637,-0.4635,-0.4636,-0.4662,-0.4627,-0.4627,-0.4627,-0.4627,0,-0.4966,-0.4956,-0.4913,-0.4904,-0.4893,-0.4861,-0.485,-0.483,-0.4806,-0.4792,-0.4764,-0.4753,-0.4716,-0.47,-0.4678,-0.4664,-0.4658,-0.4647,-0.4641,-0.4649,-0.4651,-0.4642,-0.4641,-0.4627,-0.4627,-0.4627,-0.4627,0,-0.4999,-0.497,-0.4951,-0.4913,-0.4904,-0.4897,-0.4865,-0.4855,-0.4833,-0.4816,-0.481,-0.4776,-0.4756,-0.4726,-0.4697,-0.4682,-0.4671,-0.4662,-0.4681,-0.4678,-0.4683,-0.4684,-0.4705,-0.4706,-0.4671,-0.4671,-0.4671,0,-0.5011,-0.5003,-0.4964,-0.4953,-0.4937,-0.4919,-0.4905,-0.4874,-0.486,-0.4829,-0.4823,-0.4801,-0.4781,-0.475,-0.4722,-0.47,-0.469,-0.4699,-0.4687,-0.4696,-0.4691,-0.4693,-0.4692,-0.4702,-0.4703,-0.4703,-0.4704,0,-0.5037,-0.5023,-0.5003,-0.4979,-0.4963,-0.4943,-0.4921,-0.4913,-0.4877,-0.4864,-0.4843,-0.4828,-0.4798,-0.4776,-0.475,-0.4732,-0.4712,-0.4708,-0.4708,-0.4717,-0.4728,-0.4723,-0.469,-0.4708,-0.4707,-0.4707,-0.4707,-0.4707,-0.506,-0.5051,-0.5023,-0.5003,-0.4983,-0.4963,-0.4953,-0.4929,-0.4911,-0.4884,-0.4867,-0.4847,-0.482,-0.4783,-0.4766,-0.475,-0.4742,-0.4742,-0.4742,-0.4742,-0.4746,-0.473,-0.4745,-0.4745,-0.4745,-0.4745,-0.4745,0,-0.5085,-0.5065,-0.5046,-0.5017,-0.5001,-0.4983,-0.4958,-0.4947,-0.4929,-0.4906,-0.4887,-0.4863,-0.4842,-0.4813,-0.479,-0.4783,-0.4774,-0.4778,-0.4779,-0.4775,-0.4754,-0.4757,-0.4787,-0.4787,-0.4787,-0.4787,-0.4787,-0.4787,-0.5096,-0.5081,-0.5063,-0.5039,-0.5019,-0.4999,-0.4987,-0.4969,-0.495,-0.4924,-0.4907,-0.4888,-0.4862,-0.4837,-0.4817,-0.4809,-0.4803,-0.481,-0.48,-0.478,-0.4777,-0.4773,-0.4776,-0.4809,-0.4809,-0.4822,-0.4823,-0.4823]},{"header":{"parameterUnit":"m.s-1","parameterCategory":1,"la1":30.2991,"la2":30.254,"lo1":-89.0895,"lo2":-89.0444,"dy":0.0017,"dx":0.0017,"nx":28,"ny":28,"refTime":"2025-06-20T09:00:00:Z","depth":0,"parameterNumber":3,"parameterNumberName":"V-component_of_WINDS"},"data":[0,0,0,0,0,0,0,0,0,0,0,0,0,0,0,0,0,0,0,0,0,0,0,0,0,0,0,0,0,0,0,0,0,0,0,0,0,0,0,0,0,0,0,0,0,0,0,0,0,0,0,0,0,0,0,0,0,0,3.3431,3.343,0,3.3385,3.3384,3.3383,3.3351,3.335,3.335,3.335,3.3299,3.3298,3.3297,0,0,0,0,0,0,0,0,0,0,0,0,0,3.3487,3.3486,3.3431,3.343,3.343,3.3385,3.3384,3.3383,3.3351,3.335,3.335,3.335,3.3299,3.3298,3.3297,0,0,0,0,0,0,0,0,0,0,0,0,0,3.3454,3.3486,3.3431,3.3408,3.3405,3.3385,3.3384,3.3383,3.3351,3.335,3.335,3.335,3.33,3.3298,3.3297,3.3294,0,0,3.3291,3.3291,0,0,0,0,0,0,0,0,3.3456,3.3452,3.3412,3.3409,3.3407,3.3373,3.3385,3.3353,3.3351,3.3371,3.335,3.3349,3.3324,3.332,3.3312,3.3291,3.3289,3.3291,3.329,3.329,3.3289,0,0,0,0,0,0,0,3.3458,3.3454,3.3412,3.3411,3.3408,3.3399,3.3394,3.3379,3.335,3.337,3.3367,3.3362,3.3322,3.3314,3.3311,3.3288,3.3291,3.329,3.3289,3.3288,3.3263,3.3263,0,0,0,0,0,0,3.3465,3.3456,3.3414,3.3411,3.3431,3.3398,3.3392,3.3384,3.335,3.3345,3.3363,3.3361,3.3317,3.3313,3.3309,3.3303,3.329,3.3288,3.3287,3.3263,3.3263,3.3264,0,0,0,0,0,0,3.3466,3.3461,3.3416,3.3433,3.3426,3.3398,3.3389,3.3383,3.3375,3.3345,3.3339,3.336,3.3316,3.3311,3.3298,3.3301,3.3287,3.3286,3.3262,3.3263,3.3263,3.3293,0,0,0,0,0,0,3.3468,3.3462,3.3461,3.3433,3.3425,3.3407,3.3389,3.3383,3.3373,3.337,3.3341,3.3335,3.3316,3.3301,3.3296,3.3299,3.3284,3.3262,3.3263,3.3263,3.3291,3.3294,3.3297,0,0,0,0,0,3.347,3.347,3.3461,3.3456,3.3424,3.3407,3.3403,3.3381,3.3373,3.3372,3.3353,3.3336,3.3302,3.33,3.3294,3.3296,3.3262,3.3262,3.3263,3.329,3.3294,3.3296,0,0,0,0,0,0,3.3498,3.3466,3.3456,3.3448,3.3431,3.3402,3.3399,3.3385,3.3369,3.3367,3.3339,3.3333,3.3323,3.3308,3.3306,3.3292,3.328,3.3279,3.3302,3.3305,3.3307,3.3311,3.3283,0,0,0,0,0,3.3504,3.3494,3.3466,3.3461,3.3453,3.3428,3.342,3.3405,3.3385,3.3377,3.3357,3.3338,3.3322,3.3313,3.3297,3.3289,3.3282,3.3288,3.329,3.3293,3.3293,3.3287,3.3289,3.3266,3.3266,3.3266,0,0,3.3515,3.3496,3.3491,3.3467,3.3451,3.3441,3.3422,3.3411,3.3402,3.3375,3.3362,3.3346,3.3323,3.3313,3.3307,3.33,3.3298,3.3294,3.3296,3.3294,3.3288,3.329,3.3292,3.3267,3.3266,3.3266,0,0,3.353,3.3515,3.3509,3.3495,3.3473,3.3456,3.3455,3.3428,3.3417,3.3404,3.3383,3.3372,3.3346,3.333,3.3319,3.3328,3.3313,3.3324,3.3337,3.3332,3.3334,3.3336,3.3339,3.334,3.3324,3.3324,3.3324,0,3.3546,3.353,3.3508,3.3499,3.3488,3.3464,3.3458,3.3445,3.3418,3.3411,3.3404,3.3372,3.3354,3.334,3.3342,3.3334,3.3331,3.3327,3.3336,3.3337,3.3338,3.3341,3.3342,3.3326,3.3325,3.3325,3.3325,0,3.355,3.3539,3.3538,3.3514,3.3503,3.3496,3.3472,3.3463,3.3449,3.3433,3.342,3.3398,3.3378,3.3373,3.3359,3.3357,3.3353,3.3341,3.3328,3.3342,3.3344,3.3345,3.3328,3.3327,3.3327,3.3326,0,0,3.3581,3.3546,3.3546,3.3535,3.3509,3.35,3.3491,3.3472,3.3465,3.3448,3.3439,3.3418,3.3408,3.3395,3.3378,3.3374,3.3383,3.3363,3.3362,3.3367,3.3379,3.3387,3.3389,3.3372,3.3372,3.3373,3.3381,0,3.3591,3.3575,3.3556,3.3546,3.3535,3.3513,3.3505,3.3488,3.3472,3.346,3.3442,3.3428,3.3415,3.3407,3.3402,3.3383,3.3384,3.3382,3.3363,3.3363,3.3369,3.339,3.3399,3.3408,3.3381,3.3381,3.3381,0,3.3601,3.3586,3.3576,3.3551,3.3546,3.354,3.3521,3.351,3.349,3.3479,3.3465,3.3448,3.3436,3.3425,3.3408,3.3407,3.3398,3.3387,3.3387,3.3384,3.3373,3.3387,3.341,3.3411,3.3382,3.3382,3.3382,0,3.3625,3.3602,3.3593,3.3584,3.3555,3.3551,3.3538,3.3518,3.3508,3.3492,3.3485,3.3467,3.3456,3.3442,3.342,3.3414,3.3406,3.3393,3.3395,3.3396,3.3394,3.3395,3.3416,3.3389,3.3389,3.3389,3.3389,0,3.3638,3.3632,3.3603,3.3597,3.359,3.3567,3.356,3.3546,3.3528,3.3518,3.3497,3.3488,3.346,3.3447,3.343,3.3419,3.3414,3.3404,3.34,3.3406,3.3407,3.3399,3.3398,3.3389,3.3389,3.3389,3.3389,0,3.3663,3.3643,3.3631,3.3605,3.3599,3.3595,3.3572,3.3565,3.3549,3.3537,3.3533,3.3507,3.3491,3.3468,3.3444,3.3433,3.3424,3.3417,3.3431,3.3428,3.3432,3.3432,3.3449,3.3449,3.3423,3.3423,3.3424,0,3.3672,3.3668,3.3642,3.3635,3.3623,3.3612,3.3602,3.3579,3.357,3.3547,3.3542,3.3525,3.351,3.3486,3.3464,3.3447,3.3438,3.3445,3.3435,3.3442,3.3438,3.3439,3.3438,3.3448,3.3448,3.3448,3.3449,0,3.3692,3.3682,3.367,3.3654,3.3643,3.3629,3.3614,3.3609,3.3583,3.3573,3.3557,3.3546,3.3523,3.3506,3.3486,3.3471,3.3455,3.3452,3.3452,3.3458,3.3467,3.3462,3.3437,3.3452,3.3451,3.3451,3.3451,3.3451,3.3709,3.3704,3.3685,3.3672,3.3658,3.3645,3.3637,3.3621,3.3608,3.3588,3.3575,3.3561,3.354,3.3511,3.3498,3.3485,3.3478,3.3478,3.3477,3.3478,3.348,3.3469,3.3481,3.3481,3.3481,3.3481,3.3481,0,3.3727,3.3714,3.3702,3.3683,3.3672,3.366,3.3642,3.3634,3.3621,3.3604,3.3591,3.3573,3.3556,3.3534,3.3515,3.351,3.3502,3.3505,3.3505,3.3502,3.3487,3.3489,3.3512,3.3512,3.3512,3.3512,3.3512,3.3512,3.3735,3.3726,3.3715,3.3698,3.3685,3.3671,3.3663,3.365,3.3636,3.3618,3.3604,3.359,3.3571,3.3551,3.3535,3.3529,3.3523,3.3529,3.352,3.3506,3.3503,3.3501,3.3502,3.3528,3.3528,3.3537,3.3537,3.3537]}]]